Weather History for Oscoda, MI

Change the Weather History Date:

Wednesday, May 14, 2014

  Actual Average Record
Temperature  
Mean Temperature 52 °F -  
Max Temperature 57 °F 60 °F 76 °F (2012)
Min Temperature 46 °F 42 °F 33 °F (2012)
Degree Days  
Heating Degree Days 14    
Growing Degree Days 2 (Base 50)    
Moisture  
Dew Point 40 °F    
Average Humidity 65    
Maximum Humidity 90    
Minimum Humidity 44    
Precipitation  
Precipitation 0.01 in - - ()
Sea Level Pressure  
Sea Level Pressure 30.12 in    
Wind  
Wind Speed 5 mph (NNE)    
Max Wind Speed 14 mph    
Max Gust Speed -    
Visibility 10 miles    
Events Rain    
Averages and records for this station are not official NWS values.
T = Trace of Precipitation, MM = Missing Value Source: NWS Daily Summary

Daily Weather History Graph

Daily Weather History Graph

Search for Another Location

Airport:

Trip Planner

Search our weather history database for the weather conditions in past years. The results will help you decide how hot, cold, wet, or windy it might be!

Date:

Astronomy

May. 14, 2014 Rise Set
Actual Time 6:07 AM EDT 8:53 PM EDT
Civil Twilight 5:33 AM EDT 9:26 PM EDT
Nautical Twilight 4:51 AM EDT 10:09 PM EDT
Astronomical Twilight 4:02 AM EDT 10:59 PM EDT
Moon 8:56 PM EDT (5/14) 6:07 AM EDT (5/14)
Length of Visible Light 15h 53m
Length of Day
14h 45m
Full, 100% of the Moon is Illuminated
May 14
Full
May 14
Full
May 21
Last Quarter
May 28
New
Jun 5
First Quarter

Hourly Weather History & Observations

Time (EDT) Temp. Dew Point Humidity Pressure Visibility Wind Dir Wind Speed Gust Speed Precip Events Conditions
12:14 AM 57.6 °F 48.2 °F 71% 30.03 in 10.0 mi WNW 6.9 mph - N/A   Overcast
12:33 AM 57.2 °F 48.2 °F 72% 30.03 in 10.0 mi NW 3.5 mph - N/A   Overcast
12:53 AM 57.2 °F 48.2 °F 72% 30.04 in 10.0 mi WNW 3.5 mph - N/A   Overcast
1:14 AM 56.7 °F 48.4 °F 74% 30.05 in 10.0 mi Calm Calm - N/A   Overcast
1:19 AM 56.5 °F 48.4 °F 74% 30.05 in 10.0 mi Calm Calm - N/A   Mostly Cloudy
1:53 AM 47.8 °F 44.1 °F 87% 30.05 in 10.0 mi East 6.9 mph - N/A   Mostly Cloudy
2:13 AM 46.8 °F 43.9 °F 90% 30.06 in 10.0 mi ESE 4.6 mph - N/A   Overcast
2:34 AM 48.2 °F 44.8 °F 88% 30.06 in 10.0 mi ESE 4.6 mph - N/A   Overcast
2:53 AM 48.9 °F 45.3 °F 87% 30.07 in 10.0 mi Calm Calm - N/A   Overcast
3:14 AM 49.8 °F 46.6 °F 89% 30.07 in 10.0 mi Calm Calm - N/A   Overcast
3:34 AM 50.9 °F 46.2 °F 84% 30.07 in 10.0 mi North 9.2 mph - N/A   Overcast
3:53 AM 51.1 °F 44.1 °F 77% 30.08 in 10.0 mi North 8.1 mph - N/A   Overcast
4:14 AM 50.9 °F 42.8 °F 74% 30.09 in 10.0 mi North 8.1 mph - N/A   Overcast
4:34 AM 50.9 °F 41.9 °F 71% 30.10 in 10.0 mi North 3.5 mph - N/A   Overcast
4:53 AM 50.9 °F 41.4 °F 70% 30.09 in 10.0 mi North 5.8 mph - N/A   Overcast
5:14 AM 50.9 °F 41.2 °F 69% 30.10 in 10.0 mi North 3.5 mph - N/A   Overcast
5:34 AM 50.9 °F 41.2 °F 69% 30.11 in 10.0 mi Calm Calm - N/A   Overcast
5:53 AM 50.9 °F 41.0 °F 69% 30.11 in 10.0 mi Calm Calm - N/A   Overcast
6:14 AM 51.1 °F 39.6 °F 65% 30.12 in 10.0 mi North 3.5 mph - N/A   Overcast
6:34 AM 50.7 °F 41.0 °F 69% 30.13 in 10.0 mi Calm Calm - N/A   Overcast
6:53 AM 50.5 °F 41.2 °F 70% 30.13 in 10.0 mi Calm Calm - N/A   Overcast
7:14 AM 50.9 °F 40.6 °F 68% 30.14 in 10.0 mi Calm Calm - N/A   Overcast
7:33 AM 51.4 °F 39.0 °F 63% 30.14 in 10.0 mi NE 3.5 mph - N/A   Overcast
7:53 AM 51.1 °F 40.6 °F 67% 30.14 in 10.0 mi ENE 4.6 mph - N/A   Overcast
8:14 AM 51.1 °F 39.4 °F 64% 30.15 in 10.0 mi East 4.6 mph - N/A Rain Light Rain
8:33 AM 50.9 °F 39.2 °F 64% 30.16 in 10.0 mi Calm Calm - N/A   Overcast
8:53 AM 51.1 °F 39.0 °F 63% 30.16 in 10.0 mi Calm Calm - N/A   Overcast
9:14 AM 51.8 °F 36.9 °F 57% 30.16 in 10.0 mi NNE 4.6 mph - N/A   Overcast
9:33 AM 52.0 °F 37.0 °F 57% 30.17 in 10.0 mi Calm Calm - N/A   Overcast
9:54 AM 52.5 °F 37.0 °F 56% 30.17 in 10.0 mi NE 4.6 mph - N/A   Overcast
10:14 AM 53.1 °F 36.3 °F 53% 30.16 in 10.0 mi ENE 6.9 mph - N/A   Overcast
10:33 AM 53.4 °F 36.1 °F 52% 30.16 in 10.0 mi NE 6.9 mph - N/A   Overcast
10:54 AM 52.9 °F 35.2 °F 51% 30.17 in 10.0 mi ENE 4.6 mph - N/A   Overcast
11:14 AM 53.8 °F 34.9 °F 49% 30.17 in 10.0 mi NE 5.8 mph - N/A   Overcast
11:33 AM 54.3 °F 34.5 °F 47% 30.17 in 10.0 mi NE 8.1 mph - N/A   Overcast
11:54 AM 55.2 °F 34.3 °F 45% 30.18 in 10.0 mi ENE 6.9 mph - N/A   Overcast
12:14 PM 55.8 °F 34.5 °F 45% 30.18 in 10.0 mi ENE 8.1 mph - N/A   Overcast
12:33 PM 55.4 °F 34.2 °F 45% 30.17 in 10.0 mi ENE 8.1 mph - N/A   Overcast
12:54 PM 55.4 °F 34.3 °F 45% 30.17 in 10.0 mi East 8.1 mph - N/A   Overcast
1:14 PM 55.8 °F 34.7 °F 45% 30.17 in 10.0 mi NE 8.1 mph - N/A   Overcast
1:33 PM 55.9 °F 34.7 °F 45% 30.17 in 10.0 mi NE 9.2 mph - N/A   Overcast
1:54 PM 55.6 °F 34.2 °F 44% 30.16 in 10.0 mi ENE 9.2 mph - N/A   Overcast
2:13 PM 54.5 °F 34.0 °F 46% 30.15 in 10.0 mi NE 10.4 mph - N/A   Mostly Cloudy
2:33 PM 54.5 °F 34.3 °F 47% 30.16 in 10.0 mi NE 10.4 mph - N/A   Scattered Clouds
2:54 PM 54.0 °F 34.0 °F 47% 30.16 in 10.0 mi ENE 9.2 mph - N/A   Scattered Clouds
3:14 PM 54.1 °F 34.5 °F 48% 30.18 in 10.0 mi ENE 8.1 mph - N/A   Scattered Clouds
3:33 PM 53.2 °F 34.9 °F 50% 30.17 in 10.0 mi NE 8.1 mph - N/A   Mostly Cloudy
3:54 PM 52.9 °F 35.4 °F 52% 30.16 in 10.0 mi NE 10.4 mph - N/A   Mostly Cloudy
4:13 PM 52.3 °F 36.1 °F 54% 30.15 in 10.0 mi NE 12.7 mph - N/A   Overcast
4:34 PM 51.6 °F 36.3 °F 56% 30.14 in 10.0 mi NE 9.2 mph - N/A   Overcast
4:54 PM 51.6 °F 37.2 °F 58% 30.13 in 10.0 mi NE 8.1 mph - N/A   Overcast
5:13 PM 51.4 °F 38.8 °F 62% 30.12 in 10.0 mi NE 8.1 mph - N/A Rain Light Rain
5:33 PM 50.0 °F 39.2 °F 66% 30.10 in 10.0 mi NE 13.8 mph - N/A Rain Light Rain
5:54 PM 50.0 °F 39.6 °F 67% 30.10 in 10.0 mi NE 9.2 mph - N/A Rain Light Rain
6:13 PM 50.4 °F 37.8 °F 62% 30.11 in 10.0 mi NNE 6.9 mph - N/A   Overcast
6:34 PM 50.0 °F 38.5 °F 65% 30.12 in 10.0 mi NNE 3.5 mph - N/A Rain Light Rain
6:54 PM 50.2 °F 38.5 °F 64% 30.10 in 10.0 mi NE 6.9 mph - N/A Rain Light Rain
7:13 PM 49.3 °F 38.8 °F 67% 30.10 in 10.0 mi NE 9.2 mph - N/A Rain Light Rain
7:34 PM 49.1 °F 38.8 °F 68% 30.09 in 10.0 mi NNE 9.2 mph - N/A   Overcast
7:53 PM 49.1 °F 37.9 °F 65% 30.10 in 10.0 mi NNE 9.2 mph - N/A   Overcast
8:13 PM 49.1 °F 37.6 °F 64% 30.10 in 10.0 mi NE 8.1 mph - N/A   Overcast
8:34 PM 48.2 °F 38.8 °F 70% 30.11 in 10.0 mi NNE 6.9 mph - N/A Rain Light Rain
8:53 PM 48.2 °F 39.9 °F 73% 30.10 in 10.0 mi North 9.2 mph - N/A Rain Light Rain
9:13 PM 47.3 °F 41.2 °F 79% 30.10 in 10.0 mi North 6.9 mph - N/A Rain Rain
9:34 PM 47.3 °F 41.2 °F 79% 30.12 in 10.0 mi North 4.6 mph - N/A Rain Rain
9:53 PM 46.6 °F 41.5 °F 83% 30.12 in 10.0 mi North 5.8 mph - 0.01 in Rain Light Rain
10:14 PM 46.9 °F 41.9 °F 83% 30.11 in 10.0 mi North 5.8 mph - N/A Rain Light Rain
10:34 PM 46.9 °F 42.3 °F 84% 30.10 in 10.0 mi North 5.8 mph - N/A   Light Drizzle
10:53 PM 47.3 °F 41.9 °F 82% 30.09 in 10.0 mi North 8.1 mph - N/A Rain Rain
11:14 PM 47.8 °F 41.4 °F 78% 30.09 in 10.0 mi North 8.1 mph - N/A   Overcast
11:34 PM 48.2 °F 41.5 °F 78% 30.08 in 10.0 mi North 9.2 mph - N/A Rain Light Rain
11:53 PM 47.5 °F 42.1 °F 82% 30.06 in 10.0 mi North 8.1 mph - N/A Rain Light Rain